Time,TemperatureF,DewpointF,PressureIn,WindDirection,WindDirectionDegrees,WindSpeedMPH,WindSpeedGustMPH,Humidity,HourlyPrecipIn,Conditions,Clouds,dailyrainin,SoftwareType,DateUTC
2013-09-11 00:04:00,75.3,72.8,30.06,WSW,247,0.0,0.0,92,0.00,,,0.00,Wunderground v.1.15,2013-09-11 05:04:00,
2013-09-11 00:09:00,75.4,73.2,30.06,SW,215,0.0,1.0,93,0.00,,,0.00,Wunderground v.1.15,2013-09-11 05:09:00,
2013-09-11 00:14:00,75.4,72.9,30.06,SSW,205,0.0,0.0,92,0.00,,,0.00,Wunderground v.1.15,2013-09-11 05:14:00,
2013-09-11 00:20:00,75.4,72.9,30.06,SSW,205,0.0,0.0,92,0.00,,,0.00,Wunderground v.1.15,2013-09-11 05:20:00,
2013-09-11 00:25:00,75.3,72.8,30.06,SSW,205,0.0,0.0,92,0.00,,,0.00,Wunderground v.1.15,2013-09-11 05:25:00,
2013-09-11 00:30:00,75.1,72.6,30.06,ESE,108,0.0,0.0,92,0.00,,,0.00,Wunderground v.1.15,2013-09-11 05:30:00,
2013-09-11 00:36:00,74.7,72.5,30.07,ESE,103,0.0,0.0,93,0.00,,,0.00,Wunderground v.1.15,2013-09-11 05:36:00,
2013-09-11 00:41:00,74.4,72.2,30.07,ESE,103,0.0,0.0,93,0.00,,,0.00,Wunderground v.1.15,2013-09-11 05:41:00,
2013-09-11 00:46:00,74.4,72.6,30.07,ESE,117,0.0,0.0,94,0.00,,,0.00,Wunderground v.1.15,2013-09-11 05:46:00,
2013-09-11 00:51:00,74.5,72.7,30.07,East,82,0.0,0.0,94,0.00,,,0.00,Wunderground v.1.15,2013-09-11 05:51:00,
2013-09-11 00:56:00,74.6,72.8,30.07,East,82,0.0,0.0,94,0.00,,,0.00,Wunderground v.1.15,2013-09-11 05:56:00,
2013-09-11 01:02:00,74.6,72.8,30.07,East,82,0.0,0.0,94,0.00,,,0.00,Wunderground v.1.15,2013-09-11 06:02:00,
2013-09-11 01:07:00,74.4,72.6,30.07,East,82,0.0,0.0,94,0.00,,,0.00,Wunderground v.1.15,2013-09-11 06:07:00,
2013-09-11 01:13:00,74.4,72.6,30.07,East,82,0.0,0.0,94,0.00,,,0.00,Wunderground v.1.15,2013-09-11 06:13:00,
2013-09-11 01:18:00,74.4,72.6,30.07,East,82,0.0,0.0,94,0.00,,,0.00,Wunderground v.1.15,2013-09-11 06:18:00,
2013-09-11 01:23:00,74.3,72.5,30.07,East,82,0.0,0.0,94,0.00,,,0.00,Wunderground v.1.15,2013-09-11 06:23:00,
2013-09-11 01:28:00,74.3,72.8,30.07,East,82,0.0,0.0,95,0.00,,,0.00,Wunderground v.1.15,2013-09-11 06:28:00,
2013-09-11 01:34:00,74.4,72.9,30.07,East,83,0.0,0.0,95,0.00,,,0.00,Wunderground v.1.15,2013-09-11 06:34:00,
2013-09-11 01:39:00,74.6,73.1,30.07,East,90,0.0,0.0,95,0.00,,,0.00,Wunderground v.1.15,2013-09-11 06:39:00,
2013-09-11 01:45:00,74.7,73.2,30.07,East,91,0.0,0.0,95,0.00,,,0.00,Wunderground v.1.15,2013-09-11 06:45:00,
2013-09-11 01:50:00,74.8,73.3,30.07,East,88,0.0,0.0,95,0.00,,,0.00,Wunderground v.1.15,2013-09-11 06:50:00,
2013-09-11 01:55:00,74.9,73.4,30.07,SW,236,0.0,0.0,95,0.00,,,0.00,Wunderground v.1.15,2013-09-11 06:55:00,
2013-09-11 02:00:00,75.0,73.5,30.07,ENE,75,0.0,0.0,95,0.00,,,0.00,Wunderground v.1.15,2013-09-11 07:00:00,
2013-09-11 02:06:00,75.1,73.3,30.07,ENE,75,0.0,0.0,94,0.00,,,0.00,Wunderground v.1.15,2013-09-11 07:06:00,
2013-09-11 02:11:00,75.1,73.3,30.07,ENE,77,0.0,0.0,94,0.00,,,0.00,Wunderground v.1.15,2013-09-11 07:11:00,
2013-09-11 02:16:00,75.1,73.3,30.07,East,94,0.0,1.0,94,0.00,,,0.00,Wunderground v.1.15,2013-09-11 07:16:00,
2013-09-11 02:21:00,75.2,73.4,30.07,NE,47,0.0,0.0,94,0.00,,,0.00,Wunderground v.1.15,2013-09-11 07:21:00,
2013-09-11 02:27:00,75.3,73.5,30.07,NE,47,0.0,0.0,94,0.00,,,0.00,Wunderground v.1.15,2013-09-11 07:27:00,
2013-09-11 02:33:00,75.3,73.5,30.07,NE,47,0.0,0.0,94,0.00,,,0.00,Wunderground v.1.15,2013-09-11 07:33:00,
2013-09-11 02:39:00,75.3,73.5,30.08,NE,47,0.0,0.0,94,0.00,,,0.00,Wunderground v.1.15,2013-09-11 07:39:00,
2013-09-11 02:44:00,75.3,73.5,30.07,NE,47,0.0,0.0,94,0.00,,,0.00,Wunderground v.1.15,2013-09-11 07:44:00,
2013-09-11 02:49:00,75.1,73.3,30.08,NE,47,0.0,0.0,94,0.00,,,0.00,Wunderground v.1.15,2013-09-11 07:49:00,
2013-09-11 02:54:00,75.1,73.3,30.07,East,89,0.0,0.0,94,0.00,,,0.00,Wunderground v.1.15,2013-09-11 07:54:00,
2013-09-11 03:00:00,75.1,73.3,30.07,SSE,149,0.0,0.0,94,0.00,,,0.00,Wunderground v.1.15,2013-09-11 08:00:00,
2013-09-11 03:06:00,75.1,73.6,30.07,ESE,113,0.0,0.0,95,0.00,,,0.00,Wunderground v.1.15,2013-09-11 08:06:00,
2013-09-11 03:11:00,75.1,73.6,30.07,East,90,0.0,0.0,95,0.00,,,0.00,Wunderground v.1.15,2013-09-11 08:11:00,
2013-09-11 03:16:00,75.1,73.6,30.07,East,91,0.0,0.0,95,0.00,,,0.00,Wunderground v.1.15,2013-09-11 08:16:00,
2013-09-11 03:21:00,75.1,73.6,30.07,SSW,203,0.0,0.0,95,0.00,,,0.00,Wunderground v.1.15,2013-09-11 08:21:00,
2013-09-11 03:26:00,75.0,73.2,30.08,SSW,203,0.0,0.0,94,0.00,,,0.00,Wunderground v.1.15,2013-09-11 08:26:00,
2013-09-11 03:32:00,74.8,73.3,30.08,SSW,203,0.0,0.0,95,0.00,,,0.00,Wunderground v.1.15,2013-09-11 08:32:00,
2013-09-11 03:37:00,74.8,73.3,30.07,ESE,105,0.0,0.0,95,0.00,,,0.00,Wunderground v.1.15,2013-09-11 08:37:00,
2013-09-11 03:42:00,74.7,73.2,30.07,ESE,105,0.0,0.0,95,0.00,,,0.00,Wunderground v.1.15,2013-09-11 08:42:00,
2013-09-11 03:47:00,74.5,73.0,30.07,East,86,0.0,1.0,95,0.00,,,0.00,Wunderground v.1.15,2013-09-11 08:47:00,
2013-09-11 03:52:00,74.5,73.0,30.07,East,101,0.0,0.0,95,0.00,,,0.00,Wunderground v.1.15,2013-09-11 08:52:00,
2013-09-11 03:57:00,74.4,72.9,30.07,ESE,102,0.0,1.0,95,0.00,,,0.00,Wunderground v.1.15,2013-09-11 08:57:00,
2013-09-11 04:02:00,74.3,72.8,30.08,ESE,113,0.0,0.0,95,0.00,,,0.00,Wunderground v.1.15,2013-09-11 09:02:00,
2013-09-11 04:07:00,74.1,72.6,30.08,SSE,152,0.0,0.0,95,0.00,,,0.00,Wunderground v.1.15,2013-09-11 09:07:00,
2013-09-11 04:13:00,74.0,72.5,30.08,SSE,152,0.0,0.0,95,0.00,,,0.00,Wunderground v.1.15,2013-09-11 09:13:00,
2013-09-11 04:18:00,73.9,72.4,30.08,South,177,0.0,0.0,95,0.00,,,0.00,Wunderground v.1.15,2013-09-11 09:18:00,
2013-09-11 04:24:00,73.9,72.7,30.08,WNW,285,0.0,0.0,96,0.00,,,0.00,Wunderground v.1.15,2013-09-11 09:24:00,
2013-09-11 04:29:00,73.9,72.7,30.08,South,170,0.0,0.0,96,0.00,,,0.00,Wunderground v.1.15,2013-09-11 09:29:00,
2013-09-11 04:34:00,73.9,72.7,30.08,South,170,0.0,0.0,96,0.00,,,0.00,Wunderground v.1.15,2013-09-11 09:34:00,
2013-09-11 04:39:00,73.9,72.7,30.08,SSE,167,0.0,0.0,96,0.00,,,0.00,Wunderground v.1.15,2013-09-11 09:39:00,
2013-09-11 04:44:00,73.9,72.7,30.08,SSE,153,0.0,0.0,96,0.00,,,0.00,Wunderground v.1.15,2013-09-11 09:44:00,
2013-09-11 04:49:00,73.7,72.5,30.08,ESE,120,0.0,1.0,96,0.00,,,0.00,Wunderground v.1.15,2013-09-11 09:49:00,
2013-09-11 04:54:00,73.7,72.5,30.08,SE,146,0.0,0.0,96,0.00,,,0.00,Wunderground v.1.15,2013-09-11 09:54:00,
2013-09-11 04:59:00,73.6,72.4,30.08,SE,146,0.0,0.0,96,0.00,,,0.00,Wunderground v.1.15,2013-09-11 09:59:00,
2013-09-11 05:05:00,73.4,72.2,30.08,SE,146,0.0,0.0,96,0.00,,,0.00,Wunderground v.1.15,2013-09-11 10:05:00,
2013-09-11 05:11:00,73.3,72.1,30.08,SSE,147,0.0,0.0,96,0.00,,,0.00,Wunderground v.1.15,2013-09-11 10:11:00,
2013-09-11 05:16:00,73.2,72.0,30.09,South,186,0.0,1.0,96,0.00,,,0.00,Wunderground v.1.15,2013-09-11 10:16:00,
2013-09-11 05:21:00,73.1,71.9,30.09,SSW,205,0.0,0.0,96,0.00,,,0.00,Wunderground v.1.15,2013-09-11 10:21:00,
2013-09-11 05:26:00,73.1,71.9,30.09,SSW,207,0.0,0.0,96,0.00,,,0.00,Wunderground v.1.15,2013-09-11 10:26:00,
2013-09-11 05:31:00,73.0,71.8,30.09,West,277,0.0,0.0,96,0.00,,,0.00,Wunderground v.1.15,2013-09-11 10:31:00,
2013-09-11 05:36:00,73.0,71.8,30.09,WSW,252,0.0,0.0,96,0.00,,,0.00,Wunderground v.1.15,2013-09-11 10:36:00,
2013-09-11 05:41:00,72.8,71.6,30.09,SW,234,0.0,0.0,96,0.00,,,0.00,Wunderground v.1.15,2013-09-11 10:41:00,
2013-09-11 05:46:00,72.8,71.6,30.09,SSW,210,0.0,0.0,96,0.00,,,0.00,Wunderground v.1.15,2013-09-11 10:46:00,
2013-09-11 05:51:00,72.7,71.5,30.09,SSW,210,0.0,0.0,96,0.00,,,0.00,Wunderground v.1.15,2013-09-11 10:51:00,
2013-09-11 05:56:00,72.6,71.4,30.09,SSW,210,0.0,0.0,96,0.00,,,0.00,Wunderground v.1.15,2013-09-11 10:56:00,
2013-09-11 06:02:00,72.4,71.2,30.09,SSW,203,0.0,0.0,96,0.00,,,0.00,Wunderground v.1.15,2013-09-11 11:02:00,
2013-09-11 06:07:00,72.4,71.2,30.09,SSW,192,0.0,0.0,96,0.00,,,0.00,Wunderground v.1.15,2013-09-11 11:07:00,
2013-09-11 06:12:00,72.6,71.4,30.09,SE,124,0.0,0.0,96,0.00,,,0.00,Wunderground v.1.15,2013-09-11 11:12:00,
2013-09-11 06:17:00,72.4,71.2,30.10,SE,124,0.0,0.0,96,0.00,,,0.00,Wunderground v.1.15,2013-09-11 11:17:00,
2013-09-11 06:22:00,72.3,71.1,30.10,SE,124,0.0,0.0,96,0.00,,,0.00,Wunderground v.1.15,2013-09-11 11:22:00,
2013-09-11 06:27:00,72.3,71.1,30.10,SE,124,0.0,0.0,96,0.00,,,0.00,Wunderground v.1.15,2013-09-11 11:27:00,
2013-09-11 06:32:00,72.1,70.9,30.10,SSE,150,0.0,0.0,96,0.00,,,0.00,Wunderground v.1.15,2013-09-11 11:32:00,
2013-09-11 06:37:00,71.9,70.7,30.10,SSE,151,0.0,0.0,96,0.00,,,0.00,Wunderground v.1.15,2013-09-11 11:37:00,
2013-09-11 06:42:00,71.8,70.6,30.10,SSE,150,0.0,0.0,96,0.00,,,0.00,Wunderground v.1.15,2013-09-11 11:42:00,
2013-09-11 06:47:00,71.7,70.5,30.11,SSE,150,0.0,0.0,96,0.00,,,0.00,Wunderground v.1.15,2013-09-11 11:47:00,
2013-09-11 06:52:00,71.8,70.9,30.11,South,173,0.0,0.0,97,0.00,,,0.00,Wunderground v.1.15,2013-09-11 11:52:00,
2013-09-11 06:58:00,71.8,70.9,30.11,South,172,0.0,0.0,97,0.00,,,0.00,Wunderground v.1.15,2013-09-11 11:58:00,
2013-09-11 07:03:00,71.6,70.4,30.11,South,172,0.0,0.0,96,0.00,,,0.00,Wunderground v.1.15,2013-09-11 12:03:00,
2013-09-11 07:08:00,71.6,70.7,30.11,South,172,0.0,0.0,97,0.00,,,0.00,Wunderground v.1.15,2013-09-11 12:08:00,
2013-09-11 07:14:00,71.7,70.8,30.11,South,172,0.0,0.0,97,0.00,,,0.00,Wunderground v.1.15,2013-09-11 12:14:00,
2013-09-11 07:19:00,72.0,71.1,30.11,SSE,153,0.0,0.0,97,0.00,,,0.00,Wunderground v.1.15,2013-09-11 12:19:00,
2013-09-11 07:24:00,72.3,71.4,30.11,SW,219,0.0,0.0,97,0.00,,,0.00,Wunderground v.1.15,2013-09-11 12:24:00,
2013-09-11 07:29:00,72.4,71.5,30.11,SW,219,0.0,0.0,97,0.00,,,0.00,Wunderground v.1.15,2013-09-11 12:29:00,
2013-09-11 07:34:00,72.6,71.7,30.11,SE,124,0.0,0.0,97,0.00,,,0.00,Wunderground v.1.15,2013-09-11 12:34:00,
2013-09-11 07:39:00,73.1,72.2,30.11,SE,143,0.0,0.0,97,0.00,,,0.00,Wunderground v.1.15,2013-09-11 12:39:00,
2013-09-11 07:45:00,73.8,72.9,30.12,East,95,0.0,2.0,97,0.00,,,0.00,Wunderground v.1.15,2013-09-11 12:45:00,
2013-09-11 07:50:00,74.6,73.7,30.12,SW,229,0.0,0.0,97,0.00,,,0.00,Wunderground v.1.15,2013-09-11 12:50:00,
2013-09-11 07:55:00,74.9,74.0,30.11,SSE,150,0.0,0.0,97,0.00,,,0.00,Wunderground v.1.15,2013-09-11 12:55:00,
2013-09-11 08:00:00,75.3,74.1,30.11,SSW,204,0.0,0.0,96,0.00,,,0.00,Wunderground v.1.15,2013-09-11 13:00:00,
2013-09-11 08:06:00,75.7,74.5,30.12,WSW,241,0.0,1.0,96,0.00,,,0.00,Wunderground v.1.15,2013-09-11 13:06:00,
2013-09-11 08:11:00,76.0,74.5,30.12,SW,224,1.0,1.0,95,0.00,,,0.00,Wunderground v.1.15,2013-09-11 13:11:00,
2013-09-11 08:17:00,76.7,75.2,30.12,SSW,210,0.0,1.0,95,0.00,,,0.00,Wunderground v.1.15,2013-09-11 13:17:00,
2013-09-11 08:22:00,77.2,75.0,30.12,WSW,248,0.0,2.0,93,0.00,,,0.00,Wunderground v.1.15,2013-09-11 13:22:00,
2013-09-11 08:27:00,77.5,75.3,30.11,West,267,1.0,3.0,93,0.00,,,0.00,Wunderground v.1.15,2013-09-11 13:27:00,
2013-09-11 08:32:00,77.8,75.0,30.12,West,277,1.0,1.0,91,0.00,,,0.00,Wunderground v.1.15,2013-09-11 13:32:00,
2013-09-11 08:37:00,78.2,75.0,30.12,WNW,285,0.0,4.0,90,0.00,,,0.00,Wunderground v.1.15,2013-09-11 13:37:00,
2013-09-11 08:42:00,78.5,75.0,30.11,SSW,197,1.0,4.0,89,0.00,,,0.00,Wunderground v.1.15,2013-09-11 13:42:00,
2013-09-11 08:47:00,78.8,75.3,30.12,SW,229,1.0,4.0,89,0.00,,,0.00,Wunderground v.1.15,2013-09-11 13:47:00,
2013-09-11 08:52:00,78.9,75.0,30.11,West,281,1.0,3.0,88,0.00,,,0.00,Wunderground v.1.15,2013-09-11 13:52:00,
2013-09-11 08:57:00,79.2,75.3,30.11,WNW,288,1.0,3.0,88,0.00,,,0.00,Wunderground v.1.15,2013-09-11 13:57:00,
2013-09-11 09:03:00,79.7,75.1,30.11,West,273,1.0,1.0,86,0.00,,,0.00,Wunderground v.1.15,2013-09-11 14:03:00,
2013-09-11 09:09:00,80.0,74.7,30.11,WSW,247,1.0,2.0,84,0.00,,,0.00,Wunderground v.1.15,2013-09-11 14:09:00,
2013-09-11 09:14:00,80.3,75.4,30.11,WSW,256,2.0,3.0,85,0.00,,,0.00,Wunderground v.1.15,2013-09-11 14:14:00,
2013-09-11 09:19:00,80.7,75.4,30.11,WSW,252,2.0,3.0,84,0.00,,,0.00,Wunderground v.1.15,2013-09-11 14:19:00,
2013-09-11 09:24:00,81.0,75.3,30.11,WSW,243,1.0,2.0,83,0.00,,,0.00,Wunderground v.1.15,2013-09-11 14:24:00,
2013-09-11 09:29:00,81.4,75.4,30.11,WSW,252,1.0,3.0,82,0.00,,,0.00,Wunderground v.1.15,2013-09-11 14:29:00,
2013-09-11 09:34:00,81.9,75.5,30.11,West,281,1.0,1.0,81,0.00,,,0.00,Wunderground v.1.15,2013-09-11 14:34:00,
2013-09-11 09:39:00,82.5,76.1,30.10,West,281,1.0,2.0,81,0.00,,,0.00,Wunderground v.1.15,2013-09-11 14:39:00,
2013-09-11 09:44:00,82.7,76.3,30.11,SE,134,1.0,3.0,81,0.00,,,0.00,Wunderground v.1.15,2013-09-11 14:44:00,
2013-09-11 09:49:00,83.2,76.4,30.11,West,262,1.0,3.0,80,0.00,,,0.00,Wunderground v.1.15,2013-09-11 14:49:00,
2013-09-11 09:54:00,83.6,76.4,30.11,SW,233,1.0,2.0,79,0.00,,,0.00,Wunderground v.1.15,2013-09-11 14:54:00,
2013-09-11 10:00:00,83.9,75.5,30.11,West,262,2.0,2.0,76,0.00,,,0.00,Wunderground v.1.15,2013-09-11 15:00:00,
2013-09-11 10:06:00,84.0,76.0,30.11,WSW,248,2.0,4.0,77,0.00,,,0.00,Wunderground v.1.15,2013-09-11 15:06:00,
2013-09-11 10:11:00,84.1,76.1,30.10,WSW,248,2.0,2.0,77,0.00,,,0.00,Wunderground v.1.15,2013-09-11 15:11:00,
2013-09-11 10:17:00,84.7,75.9,30.11,WNW,285,2.0,3.0,75,0.00,,,0.00,Wunderground v.1.15,2013-09-11 15:17:00,
2013-09-11 10:22:00,84.8,75.6,30.10,WSW,256,2.0,4.0,74,0.00,,,0.00,Wunderground v.1.15,2013-09-11 15:22:00,
2013-09-11 10:27:00,85.1,75.9,30.10,WNW,285,2.0,5.0,74,0.00,,,0.00,Wunderground v.1.15,2013-09-11 15:27:00,
2013-09-11 10:33:00,85.6,75.5,30.10,WSW,244,3.0,3.0,72,0.00,,,0.00,Wunderground v.1.15,2013-09-11 15:33:00,
2013-09-11 10:38:00,85.9,75.4,30.10,WNW,294,3.0,4.0,71,0.00,,,0.00,Wunderground v.1.15,2013-09-11 15:38:00,
2013-09-11 10:43:00,86.1,76.0,30.10,West,277,3.0,3.0,72,0.00,,,0.00,Wunderground v.1.15,2013-09-11 15:43:00,
2013-09-11 10:48:00,86.6,75.2,30.10,WNW,284,2.0,3.0,69,0.00,,,0.00,Wunderground v.1.15,2013-09-11 15:48:00,
2013-09-11 10:53:00,86.8,75.4,30.10,West,266,2.0,4.0,69,0.00,,,0.00,Wunderground v.1.15,2013-09-11 15:53:00,
2013-09-11 10:58:00,87.1,75.7,30.10,SSE,160,1.0,4.0,69,0.00,,,0.00,Wunderground v.1.15,2013-09-11 15:58:00,
2013-09-11 11:04:00,87.5,75.6,30.10,WNW,288,2.0,4.0,68,0.00,,,0.00,Wunderground v.1.15,2013-09-11 16:04:00,
2013-09-11 11:10:00,87.7,75.4,30.10,SW,217,2.0,2.0,67,0.00,,,0.00,Wunderground v.1.15,2013-09-11 16:10:00,
2013-09-11 11:15:00,88.1,74.4,30.10,WNW,288,2.0,3.0,64,0.00,,,0.00,Wunderground v.1.15,2013-09-11 16:15:00,
2013-09-11 11:20:00,88.4,76.0,30.09,SW,217,1.0,1.0,67,0.00,,,0.00,Wunderground v.1.15,2013-09-11 16:20:00,
2013-09-11 11:25:00,88.9,76.1,30.09,WSW,238,1.0,2.0,66,0.00,,,0.00,Wunderground v.1.15,2013-09-11 16:25:00,
2013-09-11 11:30:00,89.5,76.2,30.09,WSW,242,1.0,1.0,65,0.00,,,0.00,Wunderground v.1.15,2013-09-11 16:30:00,
2013-09-11 11:35:00,89.6,75.8,30.09,SE,134,1.0,3.0,64,0.00,,,0.00,Wunderground v.1.15,2013-09-11 16:35:00,
2013-09-11 11:40:00,89.6,75.3,30.09,SSW,208,2.0,2.0,63,0.00,,,0.00,Wunderground v.1.15,2013-09-11 16:40:00,
2013-09-11 11:45:00,89.7,75.4,30.09,SE,124,1.0,2.0,63,0.00,,,0.00,Wunderground v.1.15,2013-09-11 16:45:00,
2013-09-11 11:50:00,90.3,75.5,30.09,South,186,1.0,2.0,62,0.00,,,0.00,Wunderground v.1.15,2013-09-11 16:50:00,
2013-09-11 11:55:00,90.5,74.2,30.09,WSW,256,1.0,2.0,59,0.00,,,0.00,Wunderground v.1.15,2013-09-11 16:55:00,
2013-09-11 12:00:00,90.9,75.1,30.08,WSW,255,2.0,4.0,60,0.00,,,0.00,Wunderground v.1.15,2013-09-11 17:00:00,
2013-09-11 12:06:00,90.6,74.3,30.09,WNW,288,2.0,5.0,59,0.00,,,0.00,Wunderground v.1.15,2013-09-11 17:06:00,
2013-09-11 12:11:00,90.8,74.5,30.09,WSW,252,2.0,4.0,59,0.00,,,0.00,Wunderground v.1.15,2013-09-11 17:11:00,
2013-09-11 12:16:00,91.0,75.7,30.09,WSW,248,2.0,4.0,61,0.00,,,0.00,Wunderground v.1.15,2013-09-11 17:16:00,
2013-09-11 12:21:00,91.2,73.8,30.08,SSW,210,3.0,3.0,57,0.00,,,0.00,Wunderground v.1.15,2013-09-11 17:21:00,
2013-09-11 12:26:00,91.6,74.7,30.08,SSW,201,2.0,4.0,58,0.00,,,0.00,Wunderground v.1.15,2013-09-11 17:26:00,
2013-09-11 12:31:00,91.8,73.3,30.08,WSW,243,2.0,2.0,55,0.00,,,0.00,Wunderground v.1.15,2013-09-11 17:31:00,
2013-09-11 12:36:00,92.0,75.1,30.08,SSE,165,2.0,3.0,58,0.00,,,0.00,Wunderground v.1.15,2013-09-11 17:36:00,
2013-09-11 12:42:00,92.5,75.0,30.08,SSE,160,1.0,3.0,57,0.00,,,0.00,Wunderground v.1.15,2013-09-11 17:42:00,
2013-09-11 12:47:00,92.9,73.8,30.08,WNW,300,1.0,3.0,54,0.00,,,0.00,Wunderground v.1.15,2013-09-11 17:47:00,
2013-09-11 12:52:00,93.3,73.6,30.08,West,277,1.0,5.0,53,0.00,,,0.00,Wunderground v.1.15,2013-09-11 17:52:00,
2013-09-11 12:58:00,93.2,71.8,30.08,East,86,2.0,5.0,50,0.00,,,0.00,Wunderground v.1.15,2013-09-11 17:58:00,
2013-09-11 13:04:00,93.3,73.6,30.07,WSW,252,1.0,2.0,53,0.00,,,0.00,Wunderground v.1.15,2013-09-11 18:04:00,
2013-09-11 13:10:00,93.6,72.7,30.07,WNW,292,1.0,3.0,51,0.00,,,0.00,Wunderground v.1.15,2013-09-11 18:10:00,
2013-09-11 13:15:00,93.5,70.9,30.07,WNW,286,2.0,5.0,48,0.00,,,0.00,Wunderground v.1.15,2013-09-11 18:15:00,
2013-09-11 13:21:00,93.4,70.8,30.07,WSW,239,3.0,3.0,48,0.00,,,0.00,Wunderground v.1.15,2013-09-11 18:21:00,
2013-09-11 13:26:00,93.6,71.0,30.07,SSW,198,3.0,7.0,48,0.00,,,0.00,Wunderground v.1.15,2013-09-11 18:26:00,
2013-09-11 13:31:00,93.5,70.2,30.07,WSW,255,3.0,4.0,47,0.00,,,0.00,Wunderground v.1.15,2013-09-11 18:31:00,
2013-09-11 13:36:00,93.5,70.9,30.06,WSW,249,4.0,7.0,48,0.00,,,0.00,Wunderground v.1.15,2013-09-11 18:36:00,
2013-09-11 13:41:00,93.7,71.0,30.06,SSE,160,3.0,3.0,48,0.00,,,0.00,Wunderground v.1.15,2013-09-11 18:41:00,
2013-09-11 13:46:00,94.5,71.8,30.06,WNW,286,1.0,4.0,48,0.00,,,0.00,Wunderground v.1.15,2013-09-11 18:46:00,
2013-09-11 13:52:00,94.1,71.4,30.05,WNW,287,2.0,4.0,48,0.00,,,0.00,Wunderground v.1.15,2013-09-11 18:52:00,
2013-09-11 13:57:00,94.3,74.5,30.05,SE,135,2.0,4.0,53,0.00,,,0.00,Wunderground v.1.15,2013-09-11 18:57:00,
2013-09-11 14:02:00,94.6,71.9,30.05,WNW,283,2.0,5.0,48,0.00,,,0.00,Wunderground v.1.15,2013-09-11 19:02:00,
2013-09-11 14:07:00,94.5,70.5,30.05,SSW,204,3.0,5.0,46,0.00,,,0.00,Wunderground v.1.15,2013-09-11 19:07:00,
2013-09-11 14:12:00,94.6,71.2,30.05,WNW,283,3.0,5.0,47,0.00,,,0.00,Wunderground v.1.15,2013-09-11 19:12:00,
2013-09-11 14:18:00,95.1,72.3,30.04,NW,326,2.0,5.0,48,0.00,,,0.00,Wunderground v.1.15,2013-09-11 19:18:00,
2013-09-11 14:24:00,95.6,73.4,30.04,WNW,284,1.0,2.0,49,0.00,,,0.00,Wunderground v.1.15,2013-09-11 19:24:00,
2013-09-11 14:29:00,95.7,72.2,30.04,SW,214,1.0,4.0,47,0.00,,,0.00,Wunderground v.1.15,2013-09-11 19:29:00,
2013-09-11 14:34:00,95.4,71.3,30.04,WNW,285,2.0,6.0,46,0.00,,,0.00,Wunderground v.1.15,2013-09-11 19:34:00,
2013-09-11 14:39:00,95.1,72.3,30.04,SW,221,3.0,6.0,48,0.00,,,0.00,Wunderground v.1.15,2013-09-11 19:39:00,
2013-09-11 14:44:00,95.3,72.5,30.04,West,264,3.0,5.0,48,0.00,,,0.00,Wunderground v.1.15,2013-09-11 19:44:00,
2013-09-11 14:49:00,95.5,71.4,30.04,NNW,328,3.0,6.0,46,0.00,,,0.00,Wunderground v.1.15,2013-09-11 19:49:00,
2013-09-11 14:54:00,93.1,72.3,30.05,NNW,330,5.0,8.0,51,0.00,,,0.00,Wunderground v.1.15,2013-09-11 19:54:00,
2013-09-11 15:00:00,89.4,70.0,30.05,NNE,25,7.0,7.0,53,0.00,,,0.00,Wunderground v.1.15,2013-09-11 20:00:00,
2013-09-11 15:06:00,88.9,69.6,30.04,ENE,60,6.0,9.0,53,0.00,,,0.00,Wunderground v.1.15,2013-09-11 20:06:00,
2013-09-11 15:12:00,89.3,69.4,30.04,NNE,32,6.0,10.0,52,0.00,,,0.00,Wunderground v.1.15,2013-09-11 20:12:00,
2013-09-11 15:17:00,87.8,68.5,30.03,NE,41,6.0,12.0,53,0.00,,,0.00,Wunderground v.1.15,2013-09-11 20:17:00,
2013-09-11 15:22:00,88.7,68.2,30.03,East,80,5.0,6.0,51,0.00,,,0.00,Wunderground v.1.15,2013-09-11 20:22:00,
2013-09-11 15:27:00,90.4,69.8,30.03,ENE,68,3.0,6.0,51,0.00,,,0.00,Wunderground v.1.15,2013-09-11 20:27:00,
2013-09-11 15:33:00,91.1,71.0,30.03,North,4,3.0,5.0,52,0.00,,,0.00,Wunderground v.1.15,2013-09-11 20:33:00,
2013-09-11 15:38:00,89.1,72.9,30.03,NE,46,5.0,7.0,59,0.00,,,0.00,Wunderground v.1.15,2013-09-11 20:38:00,
2013-09-11 15:44:00,87.6,71.5,30.02,ENE,57,4.0,6.0,59,0.00,,,0.00,Wunderground v.1.15,2013-09-11 20:44:00,
2013-09-11 15:49:00,87.9,73.7,30.02,SSE,156,2.0,6.0,63,0.00,,,0.00,Wunderground v.1.15,2013-09-11 20:49:00,
2013-09-11 15:54:00,87.8,75.5,30.02,SSE,150,1.0,2.0,67,0.00,,,0.00,Wunderground v.1.15,2013-09-11 20:54:00,
2013-09-11 15:59:00,88.8,76.4,30.02,SE,143,0.0,2.0,67,0.00,,,0.00,Wunderground v.1.15,2013-09-11 20:59:00,
2013-09-11 16:05:00,90.1,76.7,30.01,South,176,0.0,0.0,65,0.00,,,0.00,Wunderground v.1.15,2013-09-11 21:05:00,
2013-09-11 16:10:00,91.4,77.0,30.01,South,173,0.0,0.0,63,0.00,,,0.00,Wunderground v.1.15,2013-09-11 21:10:00,
2013-09-11 16:15:00,93.0,77.1,30.01,SSE,160,0.0,0.0,60,0.00,,,0.00,Wunderground v.1.15,2013-09-11 21:15:00,
2013-09-11 16:20:00,93.9,75.8,30.01,SW,222,0.0,0.0,56,0.00,,,0.00,Wunderground v.1.15,2013-09-11 21:20:00,
2013-09-11 16:25:00,94.4,71.7,30.01,SW,214,0.0,0.0,48,0.00,,,0.00,Wunderground v.1.15,2013-09-11 21:25:00,
2013-09-11 16:30:00,95.0,74.6,30.01,SW,215,0.0,0.0,52,0.00,,,0.00,Wunderground v.1.15,2013-09-11 21:30:00,
2013-09-11 16:35:00,95.2,72.4,30.01,SW,217,0.0,2.0,48,0.00,,,0.00,Wunderground v.1.15,2013-09-11 21:35:00,
2013-09-11 16:40:00,95.2,73.0,30.01,WSW,248,0.0,0.0,49,0.00,,,0.00,Wunderground v.1.15,2013-09-11 21:40:00,
2013-09-11 16:45:00,95.2,73.0,30.01,SSE,148,0.0,1.0,49,0.00,,,0.00,Wunderground v.1.15,2013-09-11 21:45:00,
2013-09-11 16:50:00,95.3,71.2,30.01,SSW,193,0.0,2.0,46,0.00,,,0.00,Wunderground v.1.15,2013-09-11 21:50:00,
2013-09-11 16:55:00,95.2,71.8,30.01,South,171,0.0,2.0,47,0.00,,,0.00,Wunderground v.1.15,2013-09-11 21:55:00,
2013-09-11 17:00:00,95.3,72.5,30.01,South,191,0.0,0.0,48,0.00,,,0.00,Wunderground v.1.15,2013-09-11 22:00:00,
2013-09-11 17:06:00,95.2,72.4,30.01,SSW,208,0.0,0.0,48,0.00,,,0.00,Wunderground v.1.15,2013-09-11 22:06:00,
2013-09-11 17:11:00,95.4,75.0,30.01,SSE,166,0.0,0.0,52,0.00,,,0.00,Wunderground v.1.15,2013-09-11 22:11:00,
2013-09-11 17:16:00,95.3,72.5,30.01,South,184,0.0,0.0,48,0.00,,,0.00,Wunderground v.1.15,2013-09-11 22:16:00,
2013-09-11 17:21:00,95.3,74.3,30.01,South,175,0.0,0.0,51,0.00,,,0.00,Wunderground v.1.15,2013-09-11 22:21:00,
2013-09-11 17:26:00,94.9,73.9,30.01,South,169,0.0,0.0,51,0.00,,,0.00,Wunderground v.1.15,2013-09-11 22:26:00,
2013-09-11 17:31:00,94.2,72.1,30.01,SSE,154,0.0,0.0,49,0.00,,,0.00,Wunderground v.1.15,2013-09-11 22:31:00,
2013-09-11 17:36:00,94.2,75.6,30.01,SSW,212,0.0,0.0,55,0.00,,,0.00,Wunderground v.1.15,2013-09-11 22:36:00,
2013-09-11 17:41:00,93.6,75.5,30.01,SSW,196,0.0,0.0,56,0.00,,,0.00,Wunderground v.1.15,2013-09-11 22:41:00,
2013-09-11 17:46:00,92.9,75.9,30.01,SSW,195,0.0,0.0,58,0.00,,,0.00,Wunderground v.1.15,2013-09-11 22:46:00,
2013-09-11 17:52:00,92.1,76.7,30.00,SSW,195,0.0,0.0,61,0.00,,,0.00,Wunderground v.1.15,2013-09-11 22:52:00,
2013-09-11 17:58:00,91.1,76.7,30.00,SSE,151,0.0,0.0,63,0.00,,,0.00,Wunderground v.1.15,2013-09-11 22:58:00,
2013-09-11 18:03:00,90.4,77.5,30.00,SSE,150,0.0,0.0,66,0.00,,,0.00,Wunderground v.1.15,2013-09-11 23:03:00,
2013-09-11 18:08:00,89.9,77.0,30.00,SE,146,0.0,0.0,66,0.00,,,0.00,Wunderground v.1.15,2013-09-11 23:08:00,
2013-09-11 18:13:00,89.3,77.3,30.00,SE,145,0.0,0.0,68,0.00,,,0.00,Wunderground v.1.15,2013-09-11 23:13:00,
2013-09-11 18:20:00,88.3,77.3,30.00,SE,146,0.0,0.0,70,0.00,,,0.00,Wunderground v.1.15,2013-09-11 23:20:00,
2013-09-11 18:25:00,87.4,76.4,30.00,SE,145,0.0,0.0,70,0.00,,,0.00,Wunderground v.1.15,2013-09-11 23:25:00,
2013-09-11 18:30:00,86.6,75.6,30.00,SE,145,0.0,0.0,70,0.00,,,0.00,Wunderground v.1.15,2013-09-11 23:30:00,
2013-09-11 18:35:00,85.8,75.3,30.00,SE,145,0.0,0.0,71,0.00,,,0.00,Wunderground v.1.15,2013-09-11 23:35:00,
2013-09-11 18:40:00,85.0,75.4,30.00,SE,145,0.0,0.0,73,0.00,,,0.00,Wunderground v.1.15,2013-09-11 23:40:00,
2013-09-11 18:45:00,84.4,75.2,30.00,SE,146,0.0,0.0,74,0.00,,,0.00,Wunderground v.1.15,2013-09-11 23:45:00,
2013-09-11 18:50:00,83.5,74.7,30.00,SE,146,0.0,0.0,75,0.00,,,0.00,Wunderground v.1.15,2013-09-11 23:50:00,
2013-09-11 18:55:00,82.8,74.5,30.00,SE,145,0.0,0.0,76,0.00,,,0.00,Wunderground v.1.15,2013-09-11 23:55:00,
2013-09-11 19:00:00,81.9,74.4,30.00,SE,145,0.0,0.0,78,0.00,,,0.00,Wunderground v.1.15,2013-09-12 00:00:00,
2013-09-11 19:06:00,81.1,74.3,30.00,SE,146,0.0,0.0,80,0.00,,,0.00,Wunderground v.1.15,2013-09-12 00:06:00,
2013-09-11 19:11:00,80.4,74.4,30.00,SE,145,0.0,0.0,82,0.00,,,0.00,Wunderground v.1.15,2013-09-12 00:11:00,
2013-09-11 19:17:00,79.6,74.0,30.00,SE,145,0.0,0.0,83,0.00,,,0.00,Wunderground v.1.15,2013-09-12 00:17:00,
2013-09-11 19:22:00,79.2,73.9,30.00,SE,145,0.0,0.0,84,0.00,,,0.00,Wunderground v.1.15,2013-09-12 00:22:00,
2013-09-11 19:27:00,78.8,73.6,30.01,SW,232,0.0,1.0,84,0.00,,,0.00,Wunderground v.1.15,2013-09-12 00:27:00,
2013-09-11 19:33:00,79.0,73.0,30.01,SSW,203,0.0,0.0,82,0.00,,,0.00,Wunderground v.1.15,2013-09-12 00:33:00,
2013-09-11 19:38:00,79.3,72.6,30.01,South,186,0.0,0.0,80,0.00,,,0.00,Wunderground v.1.15,2013-09-12 00:38:00,
2013-09-11 19:44:00,79.5,73.2,30.01,SSW,207,0.0,0.0,81,0.00,,,0.00,Wunderground v.1.15,2013-09-12 00:44:00,
2013-09-11 19:49:00,79.5,72.8,30.01,SSE,158,0.0,2.0,80,0.00,,,0.00,Wunderground v.1.15,2013-09-12 00:49:00,
2013-09-11 19:54:00,79.8,73.1,30.01,SE,138,0.0,0.0,80,0.00,,,0.00,Wunderground v.1.15,2013-09-12 00:54:00,
2013-09-11 19:59:00,79.9,72.8,30.02,South,184,0.0,0.0,79,0.00,,,0.00,Wunderground v.1.15,2013-09-12 00:59:00,
2013-09-11 20:05:00,79.9,73.2,30.02,West,274,0.0,0.0,80,0.00,,,0.00,Wunderground v.1.15,2013-09-12 01:05:00,
2013-09-11 20:11:00,79.6,72.9,30.02,NW,308,0.0,1.0,80,0.00,,,0.00,Wunderground v.1.15,2013-09-12 01:11:00,
2013-09-11 20:16:00,79.5,72.8,30.02,ENE,65,0.0,1.0,80,0.00,,,0.00,Wunderground v.1.15,2013-09-12 01:16:00,
2013-09-11 20:21:00,79.4,72.7,30.02,WSW,240,0.0,0.0,80,0.00,,,0.00,Wunderground v.1.15,2013-09-12 01:21:00,
2013-09-11 20:27:00,79.2,72.5,30.02,West,259,0.0,0.0,80,0.00,,,0.00,Wunderground v.1.15,2013-09-12 01:27:00,
2013-09-11 20:32:00,79.0,72.7,30.02,SW,232,0.0,0.0,81,0.00,,,0.00,Wunderground v.1.15,2013-09-12 01:32:00,
2013-09-11 20:38:00,78.9,72.9,30.03,ENE,61,0.0,0.0,82,0.00,,,0.00,Wunderground v.1.15,2013-09-12 01:38:00,
2013-09-11 20:44:00,79.0,73.0,30.03,SSE,165,0.0,0.0,82,0.00,,,0.00,Wunderground v.1.15,2013-09-12 01:44:00,
2013-09-11 20:49:00,79.0,73.0,30.03,East,85,0.0,0.0,82,0.00,,,0.00,Wunderground v.1.15,2013-09-12 01:49:00,
2013-09-11 20:55:00,78.7,72.7,30.03,SE,127,0.0,0.0,82,0.00,,,0.00,Wunderground v.1.15,2013-09-12 01:55:00,
2013-09-11 21:00:00,78.5,72.9,30.03,SSW,207,0.0,0.0,83,0.00,,,0.00,Wunderground v.1.15,2013-09-12 02:00:00,
2013-09-11 21:06:00,78.2,72.6,30.03,SSE,157,0.0,1.0,83,0.00,,,0.00,Wunderground v.1.15,2013-09-12 02:06:00,
2013-09-11 21:11:00,78.1,72.9,30.03,SW,215,0.0,0.0,84,0.00,,,0.00,Wunderground v.1.15,2013-09-12 02:11:00,
2013-09-11 21:17:00,78.0,72.8,30.03,WSW,240,0.0,1.0,84,0.00,,,0.00,Wunderground v.1.15,2013-09-12 02:17:00,
2013-09-11 21:22:00,78.0,72.8,30.03,SSE,162,0.0,0.0,84,0.00,,,0.00,Wunderground v.1.15,2013-09-12 02:22:00,
2013-09-11 21:28:00,77.8,72.9,30.03,SSE,162,0.0,1.0,85,0.00,,,0.00,Wunderground v.1.15,2013-09-12 02:28:00,
2013-09-11 21:33:00,77.9,73.0,30.02,South,179,0.0,1.0,85,0.00,,,0.00,Wunderground v.1.15,2013-09-12 02:33:00,
2013-09-11 21:38:00,77.8,72.9,30.02,SSW,211,0.0,1.0,85,0.00,,,0.00,Wunderground v.1.15,2013-09-12 02:38:00,
2013-09-11 21:43:00,77.6,72.7,30.02,ESE,103,0.0,0.0,85,0.00,,,0.00,Wunderground v.1.15,2013-09-12 02:43:00,
2013-09-11 21:49:00,77.2,72.7,30.02,SE,124,0.0,1.0,86,0.00,,,0.00,Wunderground v.1.15,2013-09-12 02:49:00,
2013-09-11 21:54:00,76.8,72.6,30.02,SE,143,0.0,0.0,87,0.00,,,0.00,Wunderground v.1.15,2013-09-12 02:54:00,
2013-09-11 21:59:00,76.6,72.4,30.02,WSW,239,0.0,0.0,87,0.00,,,0.00,Wunderground v.1.15,2013-09-12 02:59:00,
2013-09-11 22:05:00,76.5,72.7,30.02,SE,124,0.0,0.0,88,0.00,,,0.00,Wunderground v.1.15,2013-09-12 03:05:00,
2013-09-11 22:11:00,76.7,72.9,30.02,SW,220,0.0,0.0,88,0.00,,,0.00,Wunderground v.1.15,2013-09-12 03:11:00,
2013-09-11 22:16:00,77.0,72.8,30.02,SE,136,0.0,2.0,87,0.00,,,0.00,Wunderground v.1.15,2013-09-12 03:16:00,
2013-09-11 22:22:00,77.2,73.0,30.01,SW,229,0.0,1.0,87,0.00,,,0.00,Wunderground v.1.15,2013-09-12 03:22:00,
2013-09-11 22:27:00,77.5,73.3,30.02,SW,233,0.0,1.0,87,0.00,,,0.00,Wunderground v.1.15,2013-09-12 03:27:00,
2013-09-11 22:32:00,77.6,73.4,30.02,WSW,243,1.0,2.0,87,0.00,,,0.00,Wunderground v.1.15,2013-09-12 03:32:00,
2013-09-11 22:37:00,77.8,73.6,30.02,SW,226,1.0,3.0,87,0.00,,,0.00,Wunderground v.1.15,2013-09-12 03:37:00,
2013-09-11 22:42:00,77.9,73.7,30.02,SW,214,1.0,1.0,87,0.00,,,0.00,Wunderground v.1.15,2013-09-12 03:42:00,
2013-09-11 22:48:00,78.0,73.8,30.01,West,263,1.0,2.0,87,0.00,,,0.00,Wunderground v.1.15,2013-09-12 03:48:00,
2013-09-11 22:54:00,77.9,73.7,30.01,SW,221,1.0,1.0,87,0.00,,,0.00,Wunderground v.1.15,2013-09-12 03:54:00,
2013-09-11 22:59:00,77.7,73.5,30.01,SW,221,0.0,1.0,87,0.00,,,0.00,Wunderground v.1.15,2013-09-12 03:59:00,
2013-09-11 23:01:00,77.6,73.4,30.01,SE,134,0.0,1.0,87,0.00,,,0.00,Wunderground v.1.15,2013-09-12 04:01:00,
2013-09-11 23:02:00,77.6,73.4,30.01,SSE,147,0.0,2.0,87,0.00,,,0.00,Wunderground v.1.15,2013-09-12 04:02:00,
2013-09-11 23:04:00,77.5,73.7,30.01,SSW,203,0.0,2.0,88,0.00,,,0.00,Wunderground v.1.15,2013-09-12 04:04:00,
2013-09-11 23:05:00,77.5,73.7,30.01,SW,214,0.0,2.0,88,0.00,,,0.00,Wunderground v.1.15,2013-09-12 04:05:00,
2013-09-11 23:10:00,77.4,73.6,30.01,SSW,193,0.0,2.0,88,0.00,,,0.00,Wunderground v.1.15,2013-09-12 04:10:00,
2013-09-11 23:11:00,77.4,73.6,30.01,SSW,198,0.0,0.0,88,0.00,,,0.00,Wunderground v.1.15,2013-09-12 04:11:00,
2013-09-11 23:12:00,77.3,73.5,30.01,SSW,198,0.0,0.0,88,0.00,,,0.00,Wunderground v.1.15,2013-09-12 04:12:00,
2013-09-11 23:18:00,77.1,73.3,30.01,SSW,205,0.0,1.0,88,0.00,,,0.00,Wunderground v.1.15,2013-09-12 04:18:00,
2013-09-11 23:23:00,77.0,73.5,30.00,West,277,0.0,2.0,89,0.00,,,0.00,Wunderground v.1.15,2013-09-12 04:23:00,
2013-09-11 23:28:00,76.9,73.4,30.00,WSW,245,0.0,2.0,89,0.00,,,0.00,Wunderground v.1.15,2013-09-12 04:28:00,
2013-09-11 23:33:00,76.8,73.3,30.00,SSW,210,0.0,0.0,89,0.00,,,0.00,Wunderground v.1.15,2013-09-12 04:33:00,
2013-09-11 23:38:00,76.8,73.3,30.00,WNW,282,0.0,0.0,89,0.00,,,0.00,Wunderground v.1.15,2013-09-12 04:38:00,
2013-09-11 23:44:00,76.9,73.4,30.00,WSW,249,0.0,0.0,89,0.00,,,0.00,Wunderground v.1.15,2013-09-12 04:44:00,
2013-09-11 23:49:00,76.8,73.3,30.00,WSW,243,0.0,0.0,89,0.00,,,0.00,Wunderground v.1.15,2013-09-12 04:49:00,
2013-09-11 23:54:00,76.6,73.4,30.00,West,278,0.0,0.0,90,0.00,,,0.00,Wunderground v.1.15,2013-09-12 04:54:00,
2013-09-11 23:59:00,76.4,73.2,30.00,West,278,0.0,0.0,90,0.00,,,0.00,Wunderground v.1.15,2013-09-12 04:59:00,